Temp
86 90 85 78 65 65 63 68 80 78 80 86 87 80 76 79 73 61 87 91 91 88 86 85 83 83 84 83 83 84 84 84 84 84 84 84 84 84 84 84 84 84 84 84 84 84 84 84 84
91 90 82 75 66 64 61 73 71 75 84 87 84 80 77 71 84 81 82 91 92 89 89 87 81 83 84 84 84 84 84 83 84 84 84 84 84 84 84 84 84 84 84 84 84 84 84 84 84
88 87 73 69 68 61 62 77 79 83 87 84 80 80 76 72 83 83 88 92 92 91 90 85 83 83 84 84 84 83 84 84 84 83 83 83 84 84 84 84 84 84 84 84 85 85 84 84 84
83 84 78 66 67 74 72 79 83 80 84 86 83 72 78 85 84 89 92 95 94 94 89 84 83 84 84 84 84 84 84 84 84 83 82 83 84 85 84 84 84 84 84 85 85 84 84 84 84
84 76 65 73 73 82 85 85 84 79 82 83 84 74 72 83 90 91 93 97 95 91 88 87 84 84 83 84 84 84 83 85 84 84 84 84 84 85 84 85 84 84 84 84 84 84 84 84 84
75 70 65 73 76 82 85 87 87 83 85 85 79 75 72 84 88 91 96 95 92 91 91 87 84 84 84 83 84 83 84 84 84 84 84 84 84 84 85 85 85 85 85 84 85 84 84 84 84
70 69 63 71 78 80 83 87 86 84 82 82 85 75 75 81 83 86 95 93 93 94 91 88 87 84 84 84 85 85 84 84 84 84 84 84 84 84 84 85 85 85 85 85 84 84 84 84 84
80 72 72 76 76 78 89 91 93 90 86 91 89 73 69 81 86 90 88 84 84 93 92 89 86 86 86 85 84 84 84 84 85 84 84 83 85 84 83 83 84 85 85 85 84 84 84 83 84
79 63 65 74 76 84 91 88 94 97 91 92 90 87 82 85 89 88 87 82 82 92 94 92 89 89 89 87 85 84 84 85 84 85 84 83 83 84 85 85 85 85 85 85 84 84 84 83 84
64 62 81 91 88 87 88 85 91 84 85 82 84 86 85 85 85 84 83 81 81 89 94 84 93 87 88 91 83 85 87 86 83 87 81 81 80 74 78 85 85 85 85 85 84 84 84 80 77
73 80 92 91 93 94 91 86 91 71 73 86 79 80 81 83 84 84 85 83 84 87 88 86 83 88 87 85 87 87 81 85 85 86 83 76 79 76 77 79 79 81 84 82 84 84 76 71 72
78 94 94 93 93 93 90 96 78 87 88 88 88 84 82 82 83 84 84 86 82 86 90 87 83 84 87 82 84 84 80 82 86 83 82 81 85 80 79 78 80 77 73 71 74 83 76 71 71
79 93 96 94 94 95 95 91 89 88 94 91 88 85 81 84 85 88 89 87 83 86 90 89 87 83 85 87 87 85 82 86 85 85 86 85 74 73 74 77 76 77 77 77 76 84 81 74 74
96 95 95 95 93 94 91 89 90 89 94 89 86 82 84 83 86 88 89 86 87 89 91 92 89 89 88 87 87 87 87 85 86 82 83 83 75 73 75 75 74 79 77 78 77 83 75 73 75
97 91 94 93 93 91 93 84 82 90 92 88 85 83 83 80 86 88 88 87 89 85 92 92 92 90 87 87 87 87 86 91 84 83 85 85 77 77 76 74 78 77 79 79 82 84 76 75 79
89 93 83 92 92 91 83 74 85 91 90 85 84 84 82 83 86 88 88 88 85 81 85 91 94 90 87 85 81 85 87 84 84 82 86 85 81 78 74 73 73 76 78 79 77 83 81 79 78
90 83 84 85 94 91 76 78 86 92 89 85 84 84 84 83 86 88 90 90 88 82 79 79 89 92 87 83 81 80 84 85 83 84 83 82 81 79 75 75 74 74 74 76 76 79 80 77 81
82 84 87 83 91 92 88 82 86 89 87 85 86 83 83 85 87 89 90 86 82 79 78 78 85 85 83 80 80 85 86 87 85 87 83 76 80 80 76 76 75 72 73 75 74 74 77 79 78
92 89 86 89 94 90 88 83 84 88 87 83 84 84 84 84 87 86 88 87 84 79 78 78 83 85 82 79 81 82 84 86 83 84 85 79 81 82 79 78 76 73 75 72 73 75 79 73 73
92 89 86 90 94 91 88 83 85 88 87 85 85 85 85 85 85 86 85 88 86 83 81 82 84 83 81 81 82 83 84 86 85 85 83 87 83 83 81 80 77 75 75 73 75 74 76 76 76
92 89 88 86 91 93 87 79 81 86 90 90 90 89 91 89 88 87 87 86 87 84 83 83 84 82 83 83 84 84 85 85 82 86 86 87 86 85 83 81 79 79 79 75 74 74 75 74 78
86 94 92 90 87 79 89 66 73 82 84 88 90 91 92 92 91 91 89 89 89 88 88 88 84 83 85 85 84 82 83 82 84 86 87 87 86 85 84 83 82 80 80 76 74 74 73 74 74
88 96 92 91 87 87 84 76 69 81 79 85 90 92 93 93 93 92 92 92 93 93 92 90 85 83 85 85 84 82 83 85 87 84 83 85 85 86 86 83 83 81 80 78 76 74 73 74 74
98 93 92 92 88 77 76 68 63 63 77 84 91 94 95 95 95 95 95 95 95 96 94 94 87 85 85 86 85 83 83 84 83 81 79 84 86 82 84 85 84 82 80 79 76 76 74 75 77
95 89 76 73 71 70 82 75 74 71 79 87 91 94 96 97 96 96 94 95 93 94 95 94 89 84 85 85 85 84 83 84 84 83 84 86 85 78 75 79 82 84 82 78 78 77 77 76 77
91 90 76 64 69 72 83 71 76 80 68 88 97 98 98 98 98 97 97 97 95 94 94 92 89 85 86 85 84 84 85 85 86 86 88 89 89 90 82 76 79 83 83 81 79 78 78 78 77
90 85 94 83 83 79 78 79 76 76 73 79 94 97 97 99 101 99 100 100 98 95 94 93 89 85 85 86 85 84 85 85 86 85 87 88 87 90 83 77 80 83 83 82 81 80 78 78 78
93 97 83 85 71 67 74 64 51 62 82 92 95 96 98 101 102 103 103 100 100 101 97 95 91 87 87 89 87 87 87 86 86 86 85 85 86 87 88 83 84 85 83 81 80 79 80 78 78
91 88 90 89 84 70 68 67 72 61 64 68 89 95 97 98 99 99 99 98 98 103 101 99 95 92 89 90 89 87 87 88 86 87 86 85 85 84 84 85 84 84 84 82 80 80 80 77 77
95 90 90 79 76 82 78 66 74 73 69 69 73 91 98 98 98 97 95 95 96 96 97 97 96 94 94 92 88 89 89 87 89 86 88 88 86 85 85 85 84 83 83 83 81 80 81 78 77
MSLP
1007.60 1007.44 1007.63 1007.63 1008.03 1006.79 1005.33 1004.81 1003.78 1003.51 1003.59 1003.91 1004.30 1004.97 1006.36 1006.52 1007.26 1009.43 1010.13 1010.15 1011.16 1012.20 1013.10 1013.60 1014.02 1014.20 1014.44 1014.61 1014.79 1014.88 1015.05 1015.18 1015.28 1015.32 1015.39 1015.51 1015.73 1015.83 1015.87 1015.92 1016.00 1016.10 1016.22 1016.45 1016.71 1016.84 1016.88 1017.18 1017.29
1006.79 1006.84 1007.05 1006.76 1006.35 1005.57 1005.61 1004.77 1004.29 1004.02 1003.95 1004.26 1005.28 1006.08 1007.00 1008.01 1008.12 1009.20 1010.05 1010.20 1011.04 1012.11 1012.72 1013.66 1014.27 1014.44 1014.73 1014.88 1014.97 1015.13 1015.27 1015.47 1015.42 1015.47 1015.55 1015.71 1015.86 1016.06 1016.16 1016.17 1016.28 1016.43 1016.53 1016.75 1016.94 1017.13 1017.31 1017.46 1017.59
1007.15 1006.98 1007.08 1006.21 1005.24 1004.58 1004.72 1003.88 1003.92 1003.91 1004.29 1004.82 1005.88 1007.11 1008.19 1009.32 1009.27 1009.65 1010.06 1010.26 1011.05 1011.73 1012.68 1014.00 1014.40 1014.72 1014.96 1015.08 1015.19 1015.49 1015.48 1015.60 1015.68 1015.70 1015.73 1015.87 1016.01 1016.09 1016.27 1016.39 1016.56 1016.73 1016.92 1017.04 1017.22 1017.37 1017.56 1017.72 1017.83
1006.92 1006.52 1006.54 1005.82 1004.56 1003.52 1003.46 1003.24 1003.75 1004.29 1004.75 1004.96 1005.97 1007.70 1009.18 1009.65 1009.47 1009.50 1010.07 1010.25 1010.90 1011.48 1012.96 1014.21 1014.59 1014.91 1015.18 1015.35 1015.50 1015.66 1015.72 1015.83 1015.88 1015.94 1015.82 1015.75 1016.03 1016.19 1016.36 1016.50 1016.72 1016.92 1017.18 1017.26 1017.43 1017.63 1017.79 1017.98 1018.02
1006.28 1006.05 1005.65 1003.87 1003.29 1002.36 1002.40 1002.89 1003.41 1003.93 1004.40 1005.20 1006.00 1007.96 1009.53 1009.93 1009.50 1009.69 1009.95 1009.91 1010.30 1011.85 1013.23 1014.17 1014.77 1015.10 1015.44 1015.59 1015.73 1015.85 1015.97 1015.97 1016.09 1016.02 1015.99 1016.02 1016.13 1016.29 1016.46 1016.56 1016.80 1017.01 1017.21 1017.53 1017.68 1017.83 1017.95 1018.08 1018.17
1005.86 1005.63 1004.68 1002.64 1002.34 1002.00 1001.92 1002.26 1002.49 1003.03 1003.97 1004.88 1006.51 1008.07 1010.05 1010.20 1009.59 1009.50 1009.48 1009.83 1010.87 1011.97 1012.90 1014.17 1014.94 1015.24 1015.61 1015.93 1015.99 1016.14 1016.21 1016.23 1016.27 1016.28 1016.25 1016.37 1016.47 1016.49 1016.57 1016.64 1016.74 1016.94 1017.18 1017.45 1017.58 1017.84 1017.93 1018.09 1018.27
1004.34 1005.93 1003.81 1002.35 1001.41 1001.22 1001.45 1001.45 1001.47 1002.54 1003.39 1004.40 1005.67 1007.52 1009.93 1010.12 1010.24 1009.79 1009.57 1009.89 1010.78 1011.44 1012.76 1013.99 1014.73 1015.22 1015.73 1016.03 1016.17 1016.25 1016.30 1016.40 1016.50 1016.40 1016.49 1016.73 1016.88 1016.97 1016.98 1016.94 1017.04 1017.17 1017.36 1017.56 1017.86 1017.97 1018.08 1018.21 1018.15
1004.42 1005.06 1002.97 1001.94 1000.68 1000.63 1000.42 1000.50 1001.07 1001.51 1002.36 1003.96 1004.88 1006.89 1009.44 1009.92 1010.30 1010.16 1010.05 1010.32 1011.04 1011.33 1012.55 1013.67 1014.70 1015.03 1015.51 1016.05 1016.31 1016.46 1016.39 1016.47 1016.55 1016.65 1016.80 1017.09 1017.41 1017.45 1017.72 1018.02 1017.63 1017.59 1017.69 1017.88 1018.10 1018.26 1018.44 1018.62 1018.47
1005.31 1005.26 1003.72 1001.86 1000.66 999.92 1000.32 1000.19 1000.90 1001.26 1002.02 1002.99 1004.29 1005.35 1007.66 1009.69 1010.20 1010.53 1010.93 1011.28 1011.43 1011.16 1012.09 1013.13 1014.24 1014.62 1014.88 1015.62 1016.25 1016.41 1016.43 1016.45 1016.58 1016.72 1016.94 1017.40 1017.21 1017.52 1017.90 1018.18 1018.34 1018.15 1018.31 1018.48 1018.47 1018.55 1018.77 1019.01 1018.80
1007.06 1004.88 1001.14 999.87 999.50 999.46 999.91 1000.47 1000.61 1002.29 1002.38 1004.07 1005.02 1006.42 1008.38 1009.40 1010.10 1010.72 1011.23 1011.63 1011.69 1011.27 1011.84 1013.06 1013.41 1014.42 1014.65 1014.92 1015.78 1015.85 1016.06 1016.23 1016.30 1016.29 1016.86 1017.30 1017.35 1017.96 1018.08 1018.17 1018.75 1018.41 1018.51 1018.60 1018.80 1019.06 1018.90 1019.77 1019.50
1005.46 1002.36 1000.07 999.97 999.75 999.39 999.63 1000.70 1000.67 1003.55 1003.95 1003.64 1005.57 1007.16 1008.81 1009.80 1010.23 1010.83 1011.27 1011.81 1011.93 1011.94 1012.53 1013.60 1014.15 1014.05 1014.69 1015.12 1015.33 1015.68 1016.09 1016.02 1016.00 1016.08 1016.63 1017.14 1017.50 1017.86 1018.19 1018.20 1018.87 1018.73 1018.65 1018.83 1018.76 1019.14 1020.35 1019.38 1020.37
1002.38 1000.36 999.82 999.63 999.64 999.14 999.37 999.65 1001.74 1002.04 1002.39 1003.79 1005.11 1007.29 1008.53 1009.58 1010.23 1010.75 1011.47 1011.79 1012.37 1012.66 1012.76 1013.75 1014.39 1014.31 1014.87 1014.99 1015.11 1015.66 1016.06 1015.80 1015.59 1015.80 1016.39 1017.11 1017.05 1017.70 1018.17 1018.21 1018.38 1018.63 1019.17 1019.03 1019.13 1018.53 1019.99 1020.05 1020.54
1001.84 999.42 999.22 999.42 999.26 999.34 999.43 1000.18 1001.05 1001.96 1002.25 1003.92 1005.57 1007.22 1008.57 1009.14 1009.88 1010.32 1010.90 1011.94 1012.79 1012.81 1012.97 1013.55 1014.01 1014.41 1014.84 1014.82 1014.85 1015.14 1015.52 1015.43 1015.46 1015.69 1016.26 1016.60 1017.17 1018.12 1017.59 1018.01 1018.12 1018.58 1019.19 1019.15 1019.16 1018.21 1018.41 1019.94 1020.05
998.80 998.68 998.42 998.95 999.18 999.50 999.77 1000.67 1001.06 1002.33 1002.81 1004.27 1005.51 1007.09 1008.22 1008.99 1009.56 1010.00 1010.53 1011.79 1012.42 1012.61 1012.93 1013.25 1013.94 1014.13 1014.59 1015.14 1015.06 1015.08 1015.11 1015.20 1015.32 1015.63 1016.04 1016.39 1017.00 1018.11 1018.20 1017.71 1017.85 1018.60 1018.89 1018.90 1018.51 1018.32 1018.88 1019.24 1018.78
998.10 997.57 997.94 998.50 998.94 999.58 1000.22 1000.93 1001.78 1002.65 1003.34 1004.30 1005.81 1006.96 1008.10 1009.26 1009.30 1009.57 1010.49 1011.36 1011.86 1012.63 1012.36 1012.84 1013.44 1014.23 1014.78 1015.03 1015.26 1015.16 1015.16 1014.92 1015.17 1015.46 1015.65 1016.04 1017.12 1017.46 1017.55 1017.37 1017.76 1018.19 1018.59 1018.42 1018.02 1018.13 1018.71 1018.96 1018.74
997.79 996.66 997.06 997.85 998.74 999.99 1001.32 1001.71 1002.31 1002.72 1003.26 1004.56 1005.95 1006.97 1008.01 1008.84 1009.02 1009.72 1010.48 1011.36 1012.25 1012.89 1013.01 1012.91 1013.31 1014.08 1014.71 1015.25 1015.53 1015.37 1015.10 1015.22 1015.33 1015.58 1015.57 1015.92 1016.60 1017.04 1017.46 1017.89 1018.06 1018.16 1018.39 1018.36 1018.55 1018.13 1018.38 1018.70 1018.89
996.58 995.75 996.17 997.47 998.12 999.23 1001.02 1001.32 1002.21 1002.65 1003.32 1004.35 1005.77 1006.99 1007.66 1008.27 1008.68 1009.48 1010.14 1011.07 1011.76 1012.98 1013.47 1013.53 1013.53 1013.46 1014.15 1015.12 1015.51 1015.48 1015.18 1015.09 1015.17 1015.45 1015.52 1015.68 1016.36 1017.01 1017.54 1018.08 1018.04 1018.16 1018.51 1018.78 1018.65 1018.53 1018.39 1018.69 1018.46
995.87 995.56 995.69 996.58 997.62 997.99 998.96 1000.61 1001.82 1002.64 1003.47 1004.48 1005.25 1006.59 1007.40 1007.78 1008.32 1009.21 1010.01 1011.23 1011.96 1013.02 1013.50 1013.72 1013.82 1013.96 1014.30 1014.96 1015.34 1015.09 1014.95 1014.82 1014.99 1014.96 1015.24 1015.79 1016.25 1016.85 1017.44 1017.94 1018.38 1018.52 1019.00 1019.26 1018.87 1018.71 1018.67 1018.55 1018.46
995.29 994.91 995.15 996.16 996.91 997.35 998.22 1000.33 1001.62 1002.45 1003.54 1004.54 1005.30 1005.96 1006.84 1007.59 1008.31 1009.20 1009.96 1011.01 1012.22 1012.93 1013.30 1013.50 1013.75 1013.83 1014.46 1014.93 1014.98 1014.92 1014.84 1014.83 1014.91 1014.89 1014.97 1015.38 1015.99 1016.51 1017.08 1017.58 1018.13 1018.71 1018.98 1018.19 1018.83 1018.90 1018.45 1018.86 1018.58
994.92 994.40 994.94 995.95 996.60 997.25 998.17 999.91 1001.66 1002.54 1003.31 1004.35 1004.83 1005.50 1006.11 1006.98 1007.91 1008.79 1009.68 1010.27 1011.41 1012.25 1012.80 1013.46 1013.53 1013.91 1014.39 1014.34 1014.29 1014.43 1014.61 1014.44 1014.42 1014.31 1014.63 1014.85 1015.33 1015.88 1016.47 1016.98 1017.65 1018.05 1018.34 1018.45 1018.62 1018.67 1018.37 1018.25 1018.44
994.34 994.02 994.50 995.28 996.13 996.86 998.38 1000.30 1001.57 1002.53 1002.98 1003.65 1004.28 1004.77 1004.95 1005.38 1006.34 1007.56 1008.50 1009.48 1010.49 1011.31 1011.99 1012.67 1013.02 1013.70 1014.05 1014.12 1014.23 1014.29 1014.31 1014.39 1014.35 1014.16 1014.38 1014.50 1014.72 1015.27 1015.83 1016.31 1016.79 1017.23 1017.48 1018.07 1018.26 1018.30 1018.29 1017.90 1017.72
994.19 994.61 994.75 994.94 995.30 995.61 997.25 1000.08 1001.89 1002.06 1002.67 1002.77 1002.92 1003.44 1003.89 1004.47 1005.40 1006.41 1007.39 1008.29 1009.09 1010.11 1011.03 1011.47 1012.43 1013.21 1013.49 1013.63 1013.82 1014.06 1013.98 1014.11 1014.17 1014.03 1013.82 1013.89 1014.01 1014.43 1015.04 1015.42 1015.84 1016.29 1016.73 1017.57 1018.15 1018.52 1018.36 1018.16 1017.85
994.74 994.52 994.65 994.71 994.94 994.88 996.05 998.91 1002.84 1001.84 1002.64 1002.33 1002.03 1002.15 1002.84 1003.68 1004.46 1005.48 1006.41 1007.18 1007.95 1008.98 1009.95 1010.59 1011.64 1012.44 1012.70 1013.20 1013.47 1013.76 1013.79 1013.60 1013.57 1013.61 1013.36 1013.29 1013.41 1013.63 1014.38 1014.87 1015.11 1015.63 1016.20 1016.99 1017.42 1017.81 1017.77 1017.78 1017.73
994.64 994.51 994.35 994.12 994.25 994.83 997.11 1000.89 1004.08 1002.80 1001.14 1001.44 1001.38 1001.06 1001.41 1002.47 1003.38 1004.20 1005.28 1006.11 1006.71 1007.71 1008.67 1009.42 1010.58 1011.36 1011.92 1012.37 1012.91 1013.26 1013.46 1013.42 1013.25 1013.00 1012.56 1012.54 1013.05 1013.57 1014.30 1014.91 1014.92 1014.93 1015.34 1016.00 1016.84 1017.41 1017.52 1017.02 1017.11
993.91 993.57 993.52 993.80 994.41 995.49 996.48 999.68 1001.28 1001.70 1001.90 1000.85 999.97 999.71 1000.34 1001.05 1002.32 1003.07 1003.91 1004.71 1005.73 1006.52 1007.41 1008.33 1009.29 1010.24 1010.95 1011.69 1012.27 1012.78 1013.08 1013.21 1013.09 1012.78 1012.39 1012.07 1012.78 1013.31 1013.63 1015.23 1015.49 1014.91 1014.68 1015.01 1015.58 1016.47 1016.78 1016.87 1016.87
993.12 993.04 993.50 993.73 994.23 995.10 996.17 999.26 1000.66 1002.91 1002.01 999.83 998.01 997.56 998.64 999.91 1001.08 1002.20 1002.92 1003.70 1004.54 1005.51 1006.40 1007.32 1008.19 1009.29 1010.15 1010.86 1011.55 1012.12 1012.59 1013.00 1012.93 1012.74 1012.47 1012.04 1012.18 1012.94 1013.79 1014.90 1015.65 1014.67 1014.38 1014.68 1015.07 1015.84 1016.21 1016.58 1016.69
993.15 992.82 993.05 992.74 993.26 994.08 996.77 999.94 1001.27 1003.90 1003.45 1001.08 996.52 996.47 997.40 998.66 999.69 1000.76 1001.56 1002.47 1003.15 1004.14 1005.04 1006.13 1007.28 1008.39 1009.39 1010.18 1010.87 1011.44 1011.98 1012.40 1012.41 1012.39 1012.26 1011.92 1011.85 1012.66 1013.82 1013.86 1014.16 1014.06 1014.22 1014.44 1014.77 1015.30 1015.72 1016.06 1016.31
993.58 993.25 992.82 992.36 993.09 994.74 997.37 1001.83 1005.06 1005.99 1002.93 1000.32 999.05 998.08 997.74 998.74 999.35 1000.04 1000.49 1001.11 1001.99 1002.73 1003.96 1005.13 1006.30 1007.51 1008.58 1009.44 1010.27 1010.81 1011.25 1011.71 1011.87 1012.03 1011.96 1011.78 1011.49 1011.65 1012.25 1013.03 1013.15 1013.36 1013.67 1013.96 1014.30 1014.75 1015.10 1015.56 1015.79
993.18 992.88 992.69 993.01 993.42 995.09 997.61 1002.36 1005.72 1006.36 1006.68 1003.31 1000.11 999.28 999.46 999.73 1000.24 1000.86 1001.35 1001.84 1002.17 1002.43 1003.23 1004.68 1006.03 1007.19 1008.34 1009.03 1009.45 1010.15 1010.54 1010.85 1011.10 1011.33 1011.44 1011.43 1011.32 1011.25 1011.59 1012.06 1012.37 1012.60 1012.81 1013.06 1013.60 1014.13 1014.48 1015.01 1015.28
993.69 993.49 993.49 993.50 993.96 995.29 997.38 1002.62 1004.92 1004.78 1004.60 1004.66 1002.86 1001.78 1000.32 1000.48 1000.89 1001.75 1002.41 1002.87 1003.16 1003.45 1003.76 1004.54 1005.76 1006.78 1007.65 1008.29 1009.11 1009.53 1009.82 1010.11 1010.21 1010.58 1010.67 1010.80 1010.89 1011.00 1011.20 1011.46 1011.74 1011.99 1012.34 1012.67 1013.06 1013.49 1013.83 1014.34 1014.59
Wind_Speed
9 10 6 3 2 1 4 6 4 12 12 13 14 18 18 17 8 9 18 14 22 18 15 13 13 14 13 12 12 10 9 7 7 7 6 7 7 7 7 9 10 11 13 14 14 13 16 16 14
9 8 2 4 4 3 5 5 13 3 16 15 20 17 20 20 16 19 10 18 21 18 16 14 12 14 13 11 11 9 8 6 6 6 6 7 8 8 8 9 11 13 14 14 14 13 14 14 14
11 6 3 3 3 2 4 9 13 10 14 11 11 14 7 6 12 15 12 20 20 17 17 14 13 12 12 11 10 9 8 6 7 6 5 6 10 11 11 10 12 14 15 13 13 13 14 14 12
4 3 4 2 6 13 11 10 13 12 9 3 16 13 8 8 6 16 15 22 20 21 19 14 13 12 10 11 11 8 8 8 8 7 6 9 13 13 13 12 14 15 14 14 13 13 14 13 11
5 3 4 4 9 16 11 12 11 12 12 9 15 12 10 4 12 22 19 19 18 22 18 15 12 11 10 10 10 9 9 9 8 10 13 15 15 14 13 14 14 14 14 13 14 13 13 13 10
3 2 4 6 12 15 12 10 9 13 15 15 17 13 6 5 10 13 19 15 20 20 19 15 12 11 11 9 10 11 9 10 10 10 11 13 14 13 14 14 15 15 15 14 13 13 13 13 10
10 7 5 5 15 13 15 5 10 14 10 14 18 9 10 13 5 2 9 9 16 19 18 14 13 10 13 10 10 9 11 9 8 10 10 11 11 11 12 13 15 14 13 13 11 11 10 12 11
5 4 8 8 6 13 14 11 12 12 13 25 22 9 13 17 13 9 5 9 5 19 17 14 11 10 10 8 8 8 9 9 9 8 9 10 10 9 8 8 11 14 14 12 10 9 11 10 9
11 4 7 4 3 13 15 7 13 10 12 8 8 17 29 24 19 16 11 1 3 14 17 17 14 12 10 12 8 7 8 8 7 8 8 8 5 7 10 7 8 11 11 10 8 9 10 10 8
5 2 3 12 1 8 16 3 10 8 6 18 19 27 28 27 23 19 15 7 2 10 15 7 16 8 7 9 10 8 8 7 5 3 6 3 6 10 8 9 9 10 9 9 6 7 8 8 4
16 3 12 13 9 7 16 6 18 19 11 12 22 26 26 25 21 20 17 11 7 5 6 11 4 9 7 6 6 3 2 4 6 5 6 8 4 10 9 4 4 4 6 2 6 6 11 9 5
5 7 8 12 4 2 4 10 14 9 10 20 22 25 26 23 21 23 20 16 7 10 8 11 13 5 4 4 6 7 3 2 4 4 5 3 2 6 5 5 5 3 7 10 4 4 15 16 9
16 10 8 6 5 9 3 15 11 10 6 24 18 27 23 20 20 20 20 15 10 12 11 7 8 6 4 3 2 4 5 3 4 6 5 4 6 5 0 2 4 2 7 6 7 3 4 9 12
5 3 8 10 6 5 12 7 7 10 12 23 20 22 21 20 21 19 20 18 18 14 14 16 11 7 9 3 3 0 3 4 4 3 5 7 6 7 2 2 3 2 2 4 3 3 6 3 4
4 10 14 10 6 7 11 9 12 12 12 19 18 15 20 13 16 18 18 18 16 5 10 15 12 7 3 4 2 3 3 4 3 4 5 7 8 6 4 3 1 0 4 6 4 3 6 4 7
14 12 7 8 8 19 12 7 10 11 12 19 16 17 16 21 18 18 14 15 11 4 3 8 9 14 11 5 2 3 5 1 4 3 2 7 7 7 6 4 3 1 3 5 5 2 1 1 5
12 2 14 10 10 21 12 13 11 9 10 17 17 15 15 17 18 19 17 18 18 10 4 4 6 12 12 9 5 6 7 3 3 3 4 6 9 9 7 5 4 4 3 5 4 4 1 2 3
5 4 12 12 9 12 12 15 12 12 11 11 13 18 13 15 14 16 15 9 13 10 7 6 6 5 7 6 7 6 4 3 3 4 3 8 4 9 8 6 6 4 2 5 5 6 4 3 2
7 8 13 11 5 6 12 14 11 12 12 13 13 14 14 14 14 13 15 17 14 11 12 12 11 7 3 3 6 4 4 5 4 5 6 6 6 9 9 7 8 6 5 7 5 4 5 2 4
9 9 15 11 6 3 9 16 12 9 11 12 14 14 16 17 19 21 18 20 18 17 14 12 12 6 5 4 2 3 4 3 4 4 7 8 9 8 8 8 9 9 7 8 8 6 4 5 8
13 10 9 2 13 12 15 13 12 9 8 12 14 16 17 18 20 19 20 20 19 18 17 17 12 9 9 7 5 4 3 4 2 3 3 5 8 7 6 8 7 9 8 6 4 4 7 5 2
11 6 7 10 13 11 19 8 3 13 10 13 15 15 16 15 16 18 21 22 21 19 18 16 14 13 10 10 6 7 6 5 5 5 5 6 8 10 10 8 8 8 5 8 6 3 8 6 4
12 9 9 12 12 19 26 12 5 4 10 14 16 17 17 17 18 19 17 18 18 19 18 17 17 16 12 11 9 5 7 5 7 6 5 6 9 8 7 10 9 8 6 7 6 8 9 6 4
11 11 15 17 13 12 21 16 10 9 19 18 18 19 19 20 18 20 20 19 18 18 19 16 18 15 15 11 13 10 7 7 5 3 6 6 4 7 8 9 9 8 7 7 7 7 7 8 7
13 15 9 6 3 11 18 10 8 20 13 19 22 20 18 21 19 18 21 19 18 20 20 17 17 16 15 14 11 12 11 8 10 7 9 5 4 6 8 14 10 7 7 6 7 8 8 7 7
9 10 5 3 9 9 14 7 6 11 16 26 23 22 20 18 19 18 17 18 19 20 18 18 16 16 16 15 14 11 11 9 8 8 7 8 6 1 9 11 12 8 7 6 7 6 6 4 5
13 8 12 14 19 10 11 12 18 10 32 37 25 25 21 17 19 20 20 18 17 20 19 17 13 16 16 16 12 12 11 11 10 10 9 10 10 4 13 13 16 10 9 8 8 6 7 5 6
13 12 12 7 4 9 9 7 12 25 13 13 14 15 13 10 9 8 7 16 15 15 16 15 15 16 16 15 12 11 12 12 12 10 10 8 8 5 3 12 11 9 10 8 8 6 6 7 5
3 10 10 11 11 5 4 8 9 9 20 17 6 13 12 12 10 7 8 9 7 3 12 15 13 13 13 12 11 12 12 14 12 12 11 10 10 9 6 5 8 9 8 11 10 9 7 10 9
10 10 14 10 7 9 6 5 5 16 13 16 21 13 12 11 12 10 9 8 7 6 6 10 12 10 10 8 7 9 9 10 11 12 12 11 11 8 7 6 7 8 8 9 11 12 10 11 11
Wind_Direction
203 214 199 246 253 334 11 70 145 99 86 98 63 85 75 49 68 120 146 142 125 125 125 115 116 115 113 114 113 116 117 118 122 119 119 117 117 108 95 103 113 115 117 118 115 114 114 111 111
225 223 220 258 273 119 87 138 90 129 98 80 80 78 67 57 90 119 141 128 130 132 125 123 118 115 117 118 114 116 108 105 97 119 132 136 129 124 111 114 114 110 115 119 116 114 107 109 112
255 289 273 253 303 121 94 112 106 81 108 118 104 84 73 87 111 131 153 132 132 140 123 117 114 114 122 121 113 109 103 99 98 107 113 141 135 130 118 112 111 116 118 124 122 117 115 114 118
272 228 241 232 106 112 150 138 115 117 104 77 98 80 77 113 125 127 146 142 146 130 116 120 122 125 123 118 106 104 91 97 91 82 80 127 138 127 124 120 110 117 119 119 118 111 111 117 125
192 258 253 160 124 94 99 120 150 150 135 133 117 101 103 105 149 143 157 161 127 110 125 123 125 123 117 113 107 94 85 88 95 86 86 109 129 130 132 125 120 120 123 125 126 124 122 125 131
240 204 222 128 95 105 119 146 170 140 133 150 110 115 110 182 155 159 169 137 125 129 124 130 126 125 117 119 104 95 92 93 98 102 105 116 127 134 131 135 131 125 124 132 131 129 132 135 140
227 319 285 335 132 113 117 194 102 123 139 135 140 104 127 169 179 130 124 144 128 134 123 130 131 128 118 118 115 108 95 94 107 119 121 126 132 133 142 128 127 126 126 130 127 140 138 143 149
41 247 357 61 56 103 136 140 93 108 116 136 141 141 157 164 170 128 87 33 358 129 139 139 134 158 139 141 114 117 111 114 129 136 142 143 134 130 125 130 129 133 133 131 135 140 151 143 164
12 13 5 31 297 115 126 155 120 112 126 135 148 148 147 157 161 143 143 0 344 146 146 141 158 166 153 131 143 150 146 141 150 158 168 155 162 151 141 139 146 132 132 136 146 141 147 147 179
144 264 84 66 295 79 100 337 112 35 47 86 88 108 139 158 155 162 170 153 63 147 154 118 155 153 201 149 164 180 169 172 192 180 164 157 148 91 293 159 156 146 146 152 173 164 157 66 7
169 280 62 70 27 8 104 258 93 125 256 140 125 133 145 158 162 161 153 147 157 85 102 108 98 179 90 160 179 143 344 169 173 182 143 160 209 140 197 153 162 132 171 203 188 195 80 111 245
0 78 61 79 79 110 84 116 126 127 51 127 138 142 148 166 162 164 171 175 126 156 162 135 198 134 154 205 141 163 173 251 154 167 145 98 206 139 156 166 148 108 100 254 284 154 147 170 154
230 114 131 114 93 74 111 59 63 54 73 122 135 140 152 164 171 164 169 152 166 194 168 184 156 135 146 156 339 128 150 241 168 157 161 147 63 5 96 104 94 85 154 223 281 206 139 149 178
98 91 122 143 118 87 97 102 127 77 74 138 137 145 156 166 181 168 153 170 178 185 179 180 207 138 138 207 338 185 179 244 208 122 170 116 132 184 136 105 79 296 235 262 272 118 98 3 246
176 164 140 144 161 117 93 105 88 103 124 110 122 139 146 154 189 161 150 180 152 185 207 146 147 148 205 146 305 258 292 217 116 114 178 123 139 151 116 57 180 319 302 289 280 108 120 156 262
294 157 155 125 154 107 355 114 119 127 132 124 134 145 147 167 193 153 161 172 163 148 236 136 175 171 188 173 257 296 285 9 98 31 210 121 131 125 121 142 267 281 281 317 347 208 81 277 192
246 99 120 137 204 141 148 129 137 126 128 132 147 156 160 177 175 163 178 185 165 156 192 268 270 179 160 155 207 245 244 216 184 143 194 145 151 143 143 170 202 280 324 303 304 292 110 235 297
348 87 91 125 149 207 113 116 140 134 132 143 145 154 173 181 181 159 167 135 142 157 190 225 233 223 145 157 214 217 254 176 239 184 146 121 222 154 155 176 178 210 265 288 288 299 205 216 263
301 285 115 120 161 207 133 132 146 147 143 151 162 172 173 178 187 167 179 169 166 180 195 205 229 161 166 176 208 207 229 207 199 222 170 169 193 154 163 177 177 188 190 245 277 276 251 60 281
281 277 118 127 156 201 136 132 142 166 158 168 169 178 180 173 190 179 180 191 187 196 200 202 222 167 220 202 216 190 212 236 225 171 187 184 144 158 171 185 182 187 190 215 232 255 275 211 204
280 355 37 353 166 195 112 115 143 167 191 171 178 184 187 177 174 181 181 190 186 196 190 199 178 195 203 210 204 209 246 234 274 215 162 174 165 169 176 192 179 183 181 190 207 240 249 250 252
301 42 306 254 239 227 169 147 260 159 209 188 185 187 179 173 168 176 179 189 187 189 192 192 172 200 207 210 231 209 202 197 244 229 223 193 181 178 186 192 184 180 184 178 191 203 269 235 229
294 320 268 259 262 264 194 115 337 158 209 216 208 185 179 181 177 174 186 183 189 184 191 182 183 193 205 196 223 218 237 205 217 217 218 195 182 182 191 187 189 180 198 185 186 157 203 236 227
258 280 259 252 234 242 79 93 226 230 201 207 211 188 185 176 185 176 183 187 191 183 192 191 183 188 191 200 196 228 257 239 263 272 325 207 232 182 181 218 192 183 194 176 196 177 214 224 209
224 236 260 254 345 311 136 130 182 222 218 215 194 190 183 175 182 190 183 188 189 193 192 193 189 189 190 192 206 205 228 240 244 259 237 266 206 202 137 246 221 187 183 175 167 183 211 224 223
303 311 198 238 295 232 81 142 171 135 297 232 196 180 174 180 175 193 194 189 187 194 198 197 190 187 186 191 196 214 208 229 241 255 268 272 264 276 169 101 288 217 161 164 171 186 214 229 236
305 297 335 290 221 217 109 92 -0 340 215 244 179 168 155 177 179 183 192 201 197 191 194 191 189 177 183 190 195 203 217 215 234 232 243 235 252 241 160 169 207 202 168 179 181 195 200 206 214
261 314 300 298 342 334 102 78 145 256 310 125 144 105 107 134 141 157 173 191 189 194 181 181 173 168 178 189 194 207 211 220 226 243 255 269 290 300 230 174 182 178 168 173 178 199 196 202 217
268 274 303 337 301 217 184 93 161 104 265 328 18 125 127 120 111 93 70 50 45 157 167 168 159 159 175 195 202 202 210 219 219 229 234 239 246 251 250 203 183 183 185 178 187 209 192 201 215
285 272 285 279 328 323 346 122 244 235 59 76 283 261 138 117 105 107 96 99 100 70 75 146 164 180 190 205 195 232 225 222 227 222 226 222 228 225 227 248 200 196 202 196 196 202 212 197 213